Location: Stockholm
(59.3330°N, 18.0500°E)
Time: 10:29:58
(UTC+01:00)

FENGYUN 1C DEB - Pass Details

Date: 12 December 2023
Orbit: 850 x 2580 km, 98.6° (Epoch: 26 November)

Event Time Altitude Azimuth Distance (km) Brightness Sun altitude
Exits shadow 02:29:57 27° 328° (NNW) 3,216 ? -43.2°
Drops below altitude 10° 02:35:13 10° 344° (NNW) 4,708 ? -42.6°
Sets 02:39:19 0° 351° (N) 5,920 ? -42.2°
